Date,TemperatureHighF,TemperatureAvgF,TemperatureLowF,DewpointHighF,DewpointAvgF,DewpointLowF,HumidityHigh,HumidityAvg,HumidityLow,PressureMaxIn,PressureMinIn,WindSpeedMaxMPH,WindSpeedAvgMPH,GustSpeedMaxMPH,PrecipitationSumIn
2013-1-1,31,28,23,31,27,21,100,96,88,30.04,29.92,18,1,18,0.00
2013-1-2,24,20,16,18,16,15,98,87,74,30.22,30.13,13,1,13,0.00
2013-1-3,31,20,7,24,17,0,100,89,73,30.20,30.11,18,1,18,0.00
2013-1-4,30,28,26,26,24,22,94,83,74,30.19,30.10,18,2,18,0.00
2013-1-5,35,29,25,27,25,22,96,87,70,30.36,30.15,7,0,12,0.00
2013-1-6,37,35,34,33,31,29,94,84,74,30.13,29.99,13,0,14,0.00
2013-1-7,33,28,19,29,26,19,100,93,81,30.43,30.32,7,0,7,0.00
2013-1-8,43,24,12,32,22,12,100,93,63,30.39,30.29,8,0,8,0.00
2013-1-9,43,38,23,42,36,23,100,93,80,30.41,30.20,24,4,24,0.00
2013-1-10,40,36,28,34,32,28,100,87,72,30.61,30.42,6,0,6,0.00
2013-1-11,40,37,34,39,37,34,100,100,93,30.24,30.05,0,0,0,0.00
2013-1-12,51,44,36,49,44,36,100,99,95,30.13,30.07,0,0,0,0.00
2013-1-13,66,56,38,56,52,38,100,87,69,30.01,29.89,15,1,15,0.00
2013-1-14,39,36,32,37,31,28,95,82,74,30.35,30.20,14,1,14,0.00
2013-1-15,35,32,28,30,28,27,100,86,73,30.36,30.12,10,0,10,0.00
2013-1-16,35,33,31,35,33,31,100,99,93,29.98,29.86,8,0,8,0.00
2013-1-17,33,32,31,30,30,29,95,91,86,30.15,30.05,9,0,9,0.00
2013-1-18,30,23,18,19,15,11,92,72,47,30.46,30.25,24,2,24,0.00
2013-1-19,51,43,31,26,21,16,79,44,26,30.18,29.89,21,1,23,0.00
2013-1-20,42,33,23,28,18,12,62,53,41,30.09,29.76,33,7,33,0.00
2013-1-21,25,19,11,21,14,1,92,79,64,29.98,29.86,19,3,19,0.00
2013-1-22,12,8,5,8,1,-2,94,74,59,30.22,29.97,21,2,21,0.00
2013-1-23,13,9,4,8,2,-1,88,73,62,30.25,30.07,15,0,15,0.00
2013-1-24,18,14,6,8,3,-1,78,62,47,30.50,30.36,19,2,19,0.00
2013-1-25,17,11,6,15,8,1,95,87,69,30.49,30.00,12,0,12,0.00
2013-1-26,24,23,20,22,20,17,97,88,82,30.36,30.13,12,0,12,0.00
2013-1-27,31,27,18,22,19,15,89,72,58,30.54,30.40,6,0,6,0.00
2013-1-28,48,41,30,48,41,30,100,100,98,30.18,30.00,19,1,19,0.00
2013-1-29,60,47,40,56,46,40,100,96,75,30.07,29.90,9,0,9,0.00
2013-1-30,56,49,36,55,49,36,100,100,95,29.61,29.24,26,0,26,0.00
2013-1-31,27,23,20,22,15,12,96,71,59,29.81,29.59,27,4,27,0.00
2013-2-1,16,13,10,10,6,3,87,73,66,30.31,30.02,22,3,22,0.00
2013-2-2,23,16,8,22,12,4,100,86,75,30.30,29.95,10,0,10,0.00
2013-2-3,26,22,16,23,18,12,94,87,78,29.95,29.77,21,1,21,0.00
2013-2-4,26,23,16,24,19,10,99,84,70,30.03,29.84,15,0,15,0.00
2013-2-5,31,30,27,31,28,26,100,96,87,29.92,29.79,10,0,10,0.00
2013-2-6,29,24,13,25,20,12,96,83,68,30.34,30.12,14,0,14,0.00
2013-2-7,36,22,10,26,18,9,96,84,66,30.36,30.12,14,1,14,0.00
2013-2-8,34,29,22,34,27,20,100,93,87,30.05,29.78,28,4,28,0.00
2013-2-9,30,23,16,20,17,13,94,80,62,30.39,30.05,24,2,24,0.00
2013-2-10,43,23,5,24,15,4,94,74,43,30.39,30.11,15,0,15,0.00
2013-2-11,60,48,36,44,32,27,100,58,32,29.87,29.66,31,4,31,0.00
2013-2-12,39,33,27,27,25,24,92,72,60,30.02,29.89,17,1,17,0.00
2013-2-13,38,33,25,31,29,25,100,87,67,29.80,29.68,7,0,7,0.00
2013-2-14,42,37,28,31,29,26,89,74,58,29.96,29.90,14,0,14,0.00
2013-2-15,40,35,32,31,28,25,91,76,59,30.03,29.98,14,1,14,0.00
2013-2-16,27,24,21,21,19,16,93,80,66,30.00,29.89,14,0,14,0.00
2013-2-17,20,17,15,16,12,6,95,80,65,30.17,29.92,21,3,21,0.00
2013-2-18,40,25,6,24,15,4,93,69,44,30.31,30.02,10,0,10,0.00
2013-2-19,42,32,24,40,28,15,100,88,67,29.87,29.62,26,3,26,0.00
2013-2-20,19,18,16,14,12,9,87,76,68,30.15,29.99,21,2,21,0.00
2013-2-21,24,20,15,16,14,12,91,79,69,30.34,30.21,15,1,15,0.00
2013-2-22,28,26,25,26,24,17,100,91,70,30.20,30.08,16,2,16,0.00
2013-2-23,42,36,32,36,34,31,99,89,78,29.95,29.84,0,0,0,0.00
2013-2-24,29,28,26,24,22,20,89,78,73,30.09,29.92,19,1,19,0.00
2013-2-25,43,35,27,25,24,21,86,64,48,30.21,30.07,6,0,6,0.00
2013-2-26,35,34,32,34,30,24,100,87,64,30.06,29.66,21,4,21,0.00
2013-2-27,40,37,32,38,35,3,100,93,82,29.67,29.61,11,0,11,0.00
2013-2-28,33,32,30,32,30,28,100,93,87,29.74,29.62,13,1,13,0.00
2013-3-1,31,28,26,28,25,22,98,88,84,29.92,29.84,15,2,15,0.00
2013-3-2,25,24,22,22,20,18,92,87,77,29.89,29.86,15,2,15,0.00
2013-3-3,26,23,21,22,20,17,93,86,80,29.95,29.86,16,1,16,0.00
2013-3-4,32,24,19,21,18,15,91,78,60,30.06,29.95,17,1,17,0.00
2013-3-5,45,28,11,24,17,10,95,68,30,30.07,29.75,15,0,15,0.00
2013-3-6,38,35,30,32,29,26,100,78,63,30.06,29.83,13,0,13,0.00
2013-3-7,38,35,31,32,29,27,95,81,65,30.23,30.15,16,2,16,0.00
2013-3-8,40,35,30,28,26,24,85,71,59,30.36,30.28,20,3,20,0.00
2013-3-9,55,42,29,31,28,25,87,59,32,30.38,30.23,6,0,6,0.00
2013-3-10,61,43,27,32,27,24,90,59,27,30.24,30.08,14,0,16,0.00
2013-3-11,55,47,38,46,33,27,86,60,35,30.09,29.76,20,1,20,0.00
2013-3-12,51,40,36,48,36,26,100,84,67,29.97,29.75,17,1,17,0.00
2013-3-13,36,30,26,30,24,17,94,77,53,30.04,29.92,22,3,22,0.00
2013-3-14,37,31,23,20,17,15,86,57,43,30.13,30.07,23,5,23,0.00
2013-3-15,47,43,36,34,28,19,79,56,50,29.95,29.79,17,2,17,0.00
2013-3-16,38,36,34,38,36,33,100,97,95,29.89,29.64,15,0,19,0.00
2013-3-17,35,33,29,22,21,20,71,62,58,30.20,30.13,11,0,11,0.00
2013-3-18,32,30,27,30,27,23,99,87,79,30.12,29.80,19,2,19,0.00
2013-3-19,44,37,29,29,22,17,84,56,38,29.93,29.72,25,4,25,0.00
2013-3-20,37,33,27,24,19,15,78,57,44,29.92,29.79,20,3,20,0.00
2013-3-21,27,24,19,18,11,7,78,58,49,29.85,29.80,20,3,20,0.00
2013-3-22,31,28,25,20,18,16,71,65,58,29.99,29.89,15,1,15,0.00
2013-3-23,43,36,28,22,21,20,75,56,41,30.02,29.93,16,1,16,0.00
2013-3-24,39,36,23,27,22,20,88,56,48,29.97,29.61,13,1,13,0.00
2013-3-25,35,33,30,32,31,30,100,93,84,29.69,29.50,3,0,3,0.00
2013-3-26,41,36,31,32,29,26,93,78,57,30.02,29.88,17,2,18,0.00
2013-3-27,40,36,32,31,28,24,90,72,55,30.13,30.07,18,2,22,0.00
2013-3-28,38,36,32,33,32,30,98,86,75,30.24,30.15,11,0,11,0.00
2013-3-29,49,44,36,33,29,26,87,56,41,30.25,30.15,14,0,14,0.00
2013-3-30,53,46,29,28,23,18,93,44,27,30.25,30.11,11,0,11,0.00
2013-3-31,44,40,35,44,40,27,100,96,74,29.90,29.72,9,0,9,0.00
2013-4-1,41,36,31,33,22,13,93,60,38,29.98,29.74,26,4,26,0.00
2013-4-2,38,31,25,19,15,12,78,53,37,30.17,29.97,21,3,21,0.00
2013-4-3,37,30,24,23,14,8,74,54,34,30.40,30.14,26,2,26,0.00
2013-4-4,48,33,17,23,13,3,88,50,17,30.38,30.03,16,1,16,0.00
2013-4-5,53,47,38,28,22,16,48,36,26,30.12,29.93,25,5,25,0.00
2013-4-6,55,48,32,20,14,7,60,27,15,30.30,30.13,14,1,14,0.00
2013-4-7,69,57,40,43,34,20,59,43,32,30.13,29.89,11,1,18,0.00
2013-4-8,72,67,53,47,43,39,74,43,31,30.09,29.95,14,0,14,0.00
2013-4-9,78,70,59,51,48,47,68,47,34,30.10,29.95,14,1,15,0.00
2013-4-10,79,67,57,62,54,48,100,64,41,29.98,29.81,21,1,28,0.00
2013-4-11,75,62,51,58,54,50,100,77,48,29.87,29.72,15,0,15,0.00
2013-4-12,66,58,46,58,47,33,100,70,44,29.83,29.55,21,3,23,0.00
2013-4-13,55,48,42,34,32,31,67,54,41,29.96,29.84,21,3,21,0.00
2013-4-14,62,55,40,38,32,26,57,43,32,30.15,30.07,12,0,12,0.00
2013-4-15,63,60,57,46,44,43,66,57,48,30.17,30.11,24,4,24,0.00
2013-4-16,78,70,58,59,53,48,95,57,41,30.23,30.06,18,1,18,0.00
2013-4-17,66,61,50,54,53,46,100,75,62,30.24,30.17,10,0,10,0.00
2013-4-18,74,71,65,58,56,53,72,60,54,30.09,29.92,24,5,24,0.00
2013-4-19,72,57,45,61,48,34,90,73,56,29.82,29.51,26,2,26,0.00
2013-4-20,47,42,38,30,26,23,67,52,42,30.33,30.00,23,3,23,0.00
2013-4-21,54,48,36,24,20,13,54,34,25,30.58,30.47,14,1,14,0.00
2013-4-22,58,52,44,31,25,19,55,34,23,30.50,30.35,18,4,18,0.00
2013-4-23,68,62,49,39,36,29,57,39,23,30.22,30.07,12,1,12,0.00
2013-4-24,74,60,41,58,48,38,96,69,41,30.10,29.73,31,2,31,0.00
2013-4-25,58,53,42,33,28,23,64,39,27,30.31,30.19,17,2,17,0.00
2013-4-26,60,55,45,35,29,24,68,39,27,30.47,30.38,12,1,12,0.00
2013-4-27,69,63,45,39,33,28,61,34,23,30.41,30.26,14,2,14,0.00
2013-4-28,56,52,49,49,46,41,92,82,58,30.15,30.05,16,2,16,0.00
2013-4-29,59,56,51,54,50,47,100,81,72,30.07,30.01,11,1,11,0.00
2013-4-30,64,60,57,52,50,49,82,69,59,30.25,30.17,14,4,14,0.00
2013-5-1,72,65,53,44,35,28,58,34,22,30.40,30.34,15,3,15,0.00
2013-5-2,73,59,42,42,35,24,88,46,18,30.39,30.30,17,2,17,0.00
2013-5-3,69,59,43,43,39,29,90,51,27,30.31,30.24,19,3,19,0.00
2013-5-4,66,56,42,42,40,37,85,55,37,30.27,30.15,22,3,22,0.00
2013-5-5,69,56,40,41,33,15,93,49,13,30.19,30.08,25,2,25,0.00
2013-5-6,65,55,40,53,44,36,91,68,53,30.15,30.07,19,2,19,0.00
2013-5-7,66,62,58,57,54,50,95,75,56,30.05,29.97,16,2,16,0.00
2013-5-8,72,62,54,56,51,42,100,72,36,30.02,29.93,14,0,14,0.00
2013-5-9,69,62,54,60,57,50,100,83,57,30.03,29.94,14,0,14,0.00
2013-5-10,73,62,52,62,57,52,100,84,56,30.01,29.87,20,0,20,0.00
2013-5-11,57,54,52,55,52,48,96,92,85,29.81,29.78,10,0,10,0.00
2013-5-12,50,46,40,32,27,23,63,48,39,30.01,29.88,26,4,26,0.00
2013-5-13,49,41,35,31,27,20,83,58,38,30.16,30.00,19,2,19,0.00
2013-5-14,58,43,28,45,33,27,96,71,34,30.21,30.00,14,0,14,0.00
2013-5-15,81,76,68,62,54,52,75,47,37,29.88,29.75,24,3,27,0.00
2013-5-16,78,74,67,58,52,43,73,47,32,29.97,29.89,17,2,17,0.00
2013-5-17,79,75,61,56,52,48,76,46,33,30.13,30.06,16,1,16,0.00
2013-5-18,77,71,51,58,56,49,94,60,49,30.18,30.12,15,4,15,0.00
2013-5-19,68,65,58,60,58,56,91,79,70,30.16,30.08,12,3,12,0.00
2013-5-20,82,78,68,66,62,60,84,60,47,30.07,29.95,10,1,10,0.00
2013-5-21,88,82,71,66,62,58,76,51,38,29.99,29.86,12,1,12,0.00
2013-5-22,87,78,69,66,60,56,78,55,38,29.93,29.80,21,1,21,0.00
2013-5-23,78,69,63,65,60,55,100,75,47,29.87,29.77,19,2,19,0.00
2013-5-24,47,44,42,41,36,30,94,72,64,30.22,29.97,23,5,23,0.00
2013-5-25,58,53,49,37,36,34,58,51,43,30.25,30.17,24,8,24,0.00
2013-5-26,65,60,39,39,37,34,81,42,34,30.26,30.16,18,3,18,0.00
2013-5-27,66,56,36,53,43,35,96,65,33,30.31,30.15,9,0,9,0.00
2013-5-28,71,63,52,66,61,52,100,94,76,30.13,30.03,16,0,16,0.00
2013-5-29,85,80,71,60,58,52,67,47,35,30.14,30.09,19,2,19,0.00
2013-5-30,88,78,56,64,60,56,97,56,36,30.23,30.13,14,0,14,0.00
2013-5-31,89,84,74,63,60,55,68,46,32,30.16,30.03,12,1,12,0.00
2013-6-1,88,84,76,64,62,59,65,47,40,30.03,29.90,16,1,16,0.00
2013-6-2,81,77,72,64,59,55,72,54,43,29.89,29.85,18,2,18,0.00
2013-6-3,68,63,52,58,54,49,90,71,61,30.06,29.94,13,2,13,0.00
2013-6-4,71,58,41,50,45,40,97,65,39,30.16,30.06,14,1,14,0.00
2013-6-5,78,72,58,56,53,47,69,51,43,30.15,30.00,15,3,15,0.00
2013-6-6,62,61,60,61,59,58,100,95,89,29.93,29.84,14,1,14,0.00
2013-6-7,69,65,62,66,64,62,100,96,87,29.81,29.74,11,0,12,0.00
2013-6-8,69,64,56,58,55,52,96,75,60,30.16,29.97,10,0,10,0.00
2013-6-9,81,75,54,64,60,54,100,60,48,30.19,30.08,13,2,13,0.00
2013-6-10,77,69,63,69,65,61,100,87,66,29.99,29.80,18,1,18,0.00
2013-6-11,74,70,64,66,63,60,100,81,63,29.93,29.83,14,2,14,0.00
2013-6-12,81,76,69,68,64,59,88,66,50,29.93,29.83,12,1,12,0.00
2013-6-13,72,66,60,64,59,54,90,78,70,29.74,29.58,21,5,21,0.00
2013-6-14,74,69,61,57,55,52,76,60,50,30.01,29.89,16,2,16,0.00
2013-6-15,76,72,63,54,47,40,67,43,29,30.12,30.02,14,1,14,0.00
2013-6-16,72,69,60,67,64,60,100,84,67,29.98,29.90,18,1,18,0.00
2013-6-17,82,77,66,68,59,53,100,57,41,30.00,29.92,11,1,11,0.00
2013-6-18,77,71,63,65,62,60,98,74,60,29.96,29.87,12,0,12,0.00
2013-6-19,76,72,63,53,49,46,66,45,35,30.14,30.07,11,1,11,0.00
2013-6-20,83,76,65,59,56,52,72,52,36,30.27,30.20,12,1,12,0.00
2013-6-21,85,79,65,62,57,50,86,48,35,30.31,30.19,16,0,16,0.00
2013-6-22,88,82,71,65,62,59,82,54,39,30.27,30.12,11,0,11,0.00
2013-6-23,90,83,69,66,63,60,88,53,38,30.22,30.08,12,0,12,0.00
2013-6-24,88,84,73,66,64,60,78,52,41,30.20,30.06,11,1,13,0.00
2013-6-25,88,81,66,66,64,59,99,58,44,30.10,29.93,19,3,22,0.00
2013-6-26,80,77,70,69,66,64,95,71,59,29.95,29.86,12,0,12,0.00
2013-6-27,72,70,68,71,69,66,100,96,87,29.79,29.63,10,0,11,0.00
2013-6-28,77,70,61,68,64,58,100,81,65,29.64,29.55,14,0,14,0.00
2013-6-29,79,75,71,64,61,58,77,62,49,29.70,29.62,14,1,14,0.00
2013-6-30,83,74,68,71,64,61,92,74,49,29.88,29.81,16,0,16,0.00
2013-7-1,79,72,67,72,67,63,100,85,63,29.97,29.91,9,0,9,0.00
2013-7-2,80,76,73,74,70,67,95,81,67,30.11,30.06,11,0,11,0.00
2013-7-3,86,78,71,73,68,64,100,74,49,30.25,30.16,12,1,12,0.00
2013-7-4,87,80,71,75,68,63,100,68,47,30.27,30.17,10,0,10,0.00
2013-7-5,86,82,73,70,66,64,86,61,48,30.23,30.13,8,1,10,0.00
2013-7-6,89,83,69,71,67,62,100,61,44,30.24,30.08,9,0,11,0.00
2013-7-7,83,75,70,71,68,63,100,79,52,30.14,30.05,20,0,20,0.00
2013-7-8,82,76,70,72,67,62,100,77,53,30.17,30.08,14,1,16,0.00
2013-7-9,81,76,69,72,70,68,100,82,69,30.13,30.01,11,0,11,0.00
2013-7-10,86,75,67,71,69,64,100,83,61,30.06,29.86,35,1,35,0.00
2013-7-11,78,72,63,67,61,57,100,71,52,30.04,29.97,12,1,12,0.00
2013-7-12,75,67,59,65,61,59,100,84,65,30.11,30.01,9,0,9,0.00
2013-7-13,80,75,67,68,65,63,91,72,58,30.32,30.18,10,1,10,0.00
2013-7-14,88,78,66,69,66,64,100,70,47,30.37,30.31,17,2,17,0.00
2013-7-15,89,82,65,71,68,64,100,63,46,30.40,30.29,11,0,11,0.00
2013-7-16,91,86,78,73,69,66,80,58,45,30.36,30.28,11,1,11,0.00
2013-7-17,90,85,77,73,71,65,86,63,48,30.35,30.20,12,1,12,0.00
2013-7-18,93,87,25,73,71,0,84,60,47,30.22,30.08,11,1,11,0.00
2013-7-19,92,86,78,74,71,68,77,62,50,30.08,29.92,15,1,15,0.00
2013-7-20,85,80,74,70,68,65,79,66,59,29.96,29.88,16,1,16,0.00
2013-7-21,84,79,74,69,68,66,82,69,55,30.03,29.94,8,0,8,0.00
2013-7-22,80,74,67,74,71,67,100,93,72,29.97,29.81,10,0,10,0.00
2013-7-23,80,75,67,70,67,62,100,77,62,29.81,29.72,13,1,14,0.00
2013-7-24,73,69,59,61,55,53,97,63,51,30.02,29.84,13,2,13,0.00
2013-7-25,76,71,61,57,53,50,81,55,44,30.15,30.05,13,1,13,0.00
2013-7-26,80,75,65,61,57,53,79,54,42,30.12,30.04,18,0,18,0.00
2013-7-27,70,67,65,69,67,63,100,99,90,30.01,29.91,6,0,6,0.00
2013-7-28,78,74,66,61,56,53,76,56,44,30.05,29.94,16,2,16,0.00
2013-7-29,74,70,62,58,55,52,86,60,48,30.23,30.10,14,2,14,0.00
2013-7-30,76,71,60,60,57,54,85,63,50,30.26,30.19,10,0,12,0.00
2013-7-31,79,74,61,65,60,58,90,65,49,30.17,30.00,6,0,9,0.00
2013-8-1,77,72,66,69,63,59,100,75,56,29.95,29.87,12,1,17,0.00
2013-8-2,77,74,66,62,57,52,81,56,43,30.03,29.96,18,2,18,0.00
2013-8-3,74,69,64,65,63,61,100,84,65,30.02,29.96,16,0,16,0.00
2013-8-4,72,67,56,58,55,52,93,67,52,30.12,30.04,16,2,16,0.00
2013-8-5,74,62,51,56,53,49,100,76,45,30.14,30.06,9,0,12,0.00
2013-8-6,80,74,64,61,58,55,79,58,47,30.08,30.01,13,1,13,0.00
2013-8-7,81,74,65,68,67,65,100,78,62,30.07,29.97,17,1,17,0.00
2013-8-8,82,74,69,75,70,66,100,91,65,30.03,29.97,9,0,9,0.00
2013-8-9,78,73,68,74,71,68,100,93,78,30.02,29.92,14,0,14,0.00
2013-8-10,80,75,67,66,63,58,93,67,53,30.12,30.07,14,1,14,0.00
2013-8-11,83,76,66,70,66,62,100,72,52,30.15,30.05,12,1,12,0.00
2013-8-12,81,76,68,66,63,60,92,65,50,30.10,29.96,10,0,10,0.00
2013-8-13,74,69,62,69,62,52,100,79,64,29.93,29.82,18,2,18,0.00
2013-8-14,67,59,50,55,52,49,99,78,59,30.15,29.96,15,2,15,0.00
2013-8-15,72,59,47,54,50,45,100,76,40,30.20,30.14,7,0,8,0.00
2013-8-16,77,71,60,60,56,52,82,60,42,30.20,30.16,8,0,8,0.00
2013-8-17,75,70,58,59,55,51,96,60,46,30.29,30.24,15,2,15,0.00
2013-8-18,71,67,60,62,58,54,100,74,61,30.29,30.17,11,1,11,0.00
2013-8-19,74,69,61,67,65,61,100,88,72,30.16,30.11,6,0,6,0.00
2013-8-20,80,75,65,63,60,56,91,61,48,30.26,30.18,10,0,10,0.00
2013-8-21,84,77,62,69,66,61,98,70,54,30.26,30.11,9,0,9,0.00
2013-8-22,82,74,68,70,67,65,100,82,56,30.14,30.01,14,1,14,0.00
2013-8-23,78,73,65,70,62,56,100,72,46,30.19,30.08,8,0,8,0.00
2013-8-24,79,72,30,59,56,16,76,57,39,30.38,30.29,9,0,9,0.00
2013-8-25,80,69,53,62,58,53,100,70,42,30.43,30.29,6,0,10,0.00
2013-8-26,82,77,66,65,63,59,81,62,52,30.26,30.04,15,1,15,0.00
2013-8-27,79,75,72,74,70,68,99,85,71,30.06,29.97,5,0,7,0.00
2013-8-28,72,69,67,72,69,67,100,100,100,29.96,29.87,0,0,0,0.00
2013-8-29,82,75,37,72,65,23,100,73,54,30.09,30.04,7,0,7,0.00
2013-8-30,84,79,65,69,66,64,100,67,52,30.07,29.90,12,0,12,0.00
2013-8-31,84,79,70,70,67,61,97,69,49,29.91,29.83,13,0,13,0.00
2013-9-1,76,70,66,75,69,66,100,97,82,29.96,29.82,9,0,9,0.00
2013-9-2,82,75,66,71,68,66,100,79,60,29.87,29.77,17,1,17,0.00
2013-9-3,70,66,62,63,57,54,100,73,58,30.06,29.93,18,3,18,0.00
2013-9-4,74,70,61,59,56,54,89,64,50,30.13,30.08,7,1,12,0.00
2013-9-5,71,64,52,61,53,47,98,71,47,30.24,30.11,15,1,15,0.00
2013-9-6,71,56,44,52,47,43,100,78,39,30.29,30.21,8,0,8,0.00
2013-9-7,76,59,45,58,50,45,100,76,38,30.22,30.04,10,0,10,0.00
2013-9-8,76,72,64,65,63,60,99,75,63,30.10,29.99,13,1,13,0.00
2013-9-9,73,68,58,65,60,51,100,78,62,30.20,30.10,10,1,10,0.00
2013-9-10,87,80,64,73,71,64,99,74,61,30.20,30.14,13,1,13,0.00
2013-9-11,87,79,70,73,70,65,100,76,57,30.23,30.09,20,0,20,0.00
2013-9-12,80,71,63,71,67,63,100,89,65,30.00,29.82,25,1,25,0.00
2013-9-13,62,56,49,58,53,48,100,90,77,30.03,29.89,14,1,14,0.00
2013-9-14,61,52,46,49,46,42,100,83,58,30.22,30.03,15,0,15,0.00
2013-9-15,71,54,42,58,49,42,100,85,52,30.23,30.13,12,0,12,0.00
2013-9-16,67,61,54,56,54,51,100,79,63,30.33,30.18,12,1,12,0.00
2013-9-17,65,57,46,47,44,40,95,63,40,30.43,30.34,8,0,10,0.00
2013-9-18,70,53,39,51,45,39,100,79,43,30.35,30.20,11,0,11,0.00
2013-9-19,72,64,50,62,60,50,100,85,67,30.20,30.11,7,0,7,0.00
2013-9-20,78,72,61,64,63,59,96,75,61,30.06,29.93,11,0,11,0.00
2013-9-21,69,62,19,65,60,15,100,95,85,29.79,29.72,26,1,26,0.00
2013-9-22,59,56,53,55,50,48,100,81,68,30.00,29.91,8,1,14,0.00
2013-9-23,56,51,44,46,44,42,100,77,64,30.15,30.11,7,1,13,0.00
2013-9-24,67,50,39,51,44,39,100,84,48,30.18,30.02,0,0,6,0.00
2013-9-25,69,60,44,54,51,44,100,74,53,30.02,29.94,0,0,6,0.00
2013-9-26,72,63,49,53,50,46,100,66,40,30.15,30.03,9,0,11,0.00
2013-9-27,71,64,50,56,54,49,96,71,52,30.27,30.19,6,0,9,0.00
2013-9-28,65,60,51,55,51,49,100,73,62,30.33,30.26,10,2,11,0.00
2013-9-29,70,63,52,54,52,50,95,71,54,30.20,30.08,6,0,11,0.00
2013-9-30,70,64,56,60,58,52,100,82,64,30.12,30.04,0,0,9,0.00
2013-10-1,74,68,58,60,59,58,100,75,60,30.11,30.05,8,2,12,0.00
2013-10-2,75,71,62,64,62,61,96,74,62,30.14,30.09,6,1,12,0.00
2013-10-3,76,70,55,67,64,55,100,84,65,30.16,30.07,0,0,6,0.00
2013-10-4,78,74,67,67,65,62,100,75,60,30.16,30.08,6,1,12,0.00
2013-10-5,79,74,67,68,67,65,99,80,64,30.16,30.03,0,0,9,0.00
2013-10-6,84,77,66,66,62,58,97,61,42,30.01,29.84,5,0,18,0.00
2013-10-7,65,55,46,63,50,44,100,84,62,30.09,29.74,9,1,20,0.00
2013-10-8,64,58,48,48,45,41,97,65,44,30.34,30.25,5,0,11,0.00
2013-10-9,63,58,41,47,43,39,100,60,41,30.35,30.29,6,1,10,0.00
2013-10-10,59,54,49,52,49,45,100,83,63,30.24,30.13,0,0,5,0.00
2013-10-11,59,56,52,59,56,52,100,100,100,30.14,30.06,0,0,5,0.00
2013-10-12,70,66,60,61,59,58,100,78,67,30.21,30.14,5,0,13,0.00
2013-10-13,63,60,57,59,57,56,100,91,79,30.33,30.28,6,1,10,0.00
2013-10-14,63,60,55,58,57,55,100,91,83,30.34,30.25,0,0,0,0.00
2013-10-15,68,63,51,57,55,51,100,76,62,30.23,30.09,8,1,11,0.00
2013-10-16,62,60,54,62,58,54,100,96,82,30.03,29.90,0,0,1,0.00
2013-10-17,60,56,50,59,54,49,100,96,87,29.93,29.66,7,1,18,0.00
2013-10-18,58,53,45,45,43,41,91,70,53,30.05,29.98,11,2,17,0.00
2013-10-19,54,44,36,48,42,36,100,94,72,29.98,29.78,14,1,19,0.00
2013-10-20,55,52,46,40,39,38,77,61,53,30.06,30.02,12,2,16,0.00
2013-10-21,64,47,32,43,38,32,100,75,40,30.14,29.96,0,0,10,0.00
2013-10-22,49,45,39,41,35,32,98,71,54,29.96,29.89,6,1,16,0.00
2013-10-23,41,39,37,40,38,36,99,96,93,29.89,29.74,4,0,15,0.00
2013-10-24,42,38,34,33,31,29,91,77,62,30.13,30.01,5,1,15,0.00
2013-10-25,44,37,32,34,32,31,94,84,63,30.31,30.13,5,0,13,0.00
2013-10-26,50,38,26,30,27,24,100,71,37,30.26,29.92,6,0,17,0.00
2013-10-27,48,44,32,35,32,30,92,63,51,30.15,30.08,5,1,18,0.00
2013-10-28,56,39,26,36,32,26,100,79,42,30.29,30.15,4,0,10,0.00
2013-10-29,57,51,38,39,37,36,93,60,44,30.41,30.31,4,0,12,0.00
2013-10-30,64,56,44,49,47,40,92,72,57,30.25,30.15,0,0,15,0.00
2013-10-31,60,56,51,60,56,51,100,100,100,30.02,29.62,0,0,9,0.00
2013-11-1,61,56,49,57,49,44,100,79,52,29.73,29.40,12,2,44,0.00
2013-11-2,51,48,42,45,42,39,100,82,66,29.89,29.69,7,1,18,0.00
2013-11-3,46,39,30,34,31,28,91,72,53,30.46,30.23,11,2,16,0.00
2013-11-4,42,33,24,28,24,21,100,72,46,30.58,30.47,8,0,15,0.00
2013-11-5,51,45,37,30,29,26,72,53,40,30.57,30.41,0,0,13,0.00
2013-11-6,68,59,41,49,46,35,81,63,47,30.28,29.99,8,1,19,0.00
2013-11-7,45,41,37,42,35,27,95,80,63,30.11,30.00,10,1,18,0.00
2013-11-8,42,39,35,30,27,26,74,63,55,30.29,30.21,10,3,24,0.00
2013-11-9,54,41,26,31,28,25,98,63,32,30.30,29.98,6,0,16,0.00
2013-11-10,45,42,39,34,30,29,69,62,56,30.23,30.02,14,6,31,0.00
2013-11-11,50,46,37,40,30,24,94,56,38,30.23,30.02,7,1,15,0.00
2013-11-12,31,29,25,28,24,21,98,80,65,30.42,30.26,11,2,21,0.00
2013-11-13,34,29,25,24,22,21,92,77,62,30.51,30.37,7,1,19,0.00
2013-11-14,47,39,27,26,23,18,88,56,32,30.32,30.22,0,0,15,0.00
2013-11-15,52,37,25,39,26,22,97,71,32,30.26,30.17,5,0,19,0.00
2013-11-16,58,52,39,47,44,39,100,76,60,30.29,30.15,6,0,14,0.00
2013-11-17,54,52,48,54,52,48,100,100,100,30.05,29.61,0,0,14,0.00
2013-11-18,53,48,39,51,34,27,98,60,44,29.99,29.69,12,4,33,0.00
2013-11-19,36,33,27,27,26,25,92,74,66,30.40,30.25,11,2,18,0.00
2013-11-20,42,30,21,25,21,16,100,72,35,30.53,30.40,14,1,22,0.00
2013-11-21,48,41,30,37,34,27,87,75,61,30.49,30.31,0,0,7,0.00
2013-11-22,52,48,41,52,48,38,100,99,90,30.18,30.04,9,2,27,0.00
2013-11-23,36,28,19,27,20,10,96,72,57,30.26,30.09,18,7,33,0.00
2013-11-24,22,18,16,18,12,9,93,76,68,30.49,30.27,13,2,22,0.00
2013-11-25,33,22,13,23,15,10,92,75,49,30.49,30.22,6,0,10,0.00
2013-11-26,33,32,31,33,32,31,100,100,100,30.14,29.74,0,0,0,0.00
2013-11-27,31,27,22,30,23,17,96,86,79,29.97,29.65,18,6,28,0.00
2013-11-28,26,26,23,22,20,15,85,78,65,30.40,30.35,6,0,14,0.00
2013-11-29,31,27,20,22,21,19,96,78,66,30.67,30.62,0,0,7,0.00
2013-11-30,33,23,14,24,19,13,98,87,68,30.67,30.32,9,1,16,0.00
2013-12-1,40,34,25,33,30,24,95,84,68,30.18,30.01,0,0,0,0.00
2013-12-2,48,42,34,37,36,34,100,82,65,29.95,29.84,0,0,7,0.00
2013-12-3,51,42,35,42,38,34,100,87,63,29.96,29.89,4,0,14,0.00
2013-12-4,53,45,33,43,40,33,100,84,68,30.08,29.95,0,0,10,0.00
2013-12-5,54,51,45,54,50,44,100,99,86,29.99,29.90,0,0,22,0.00
2013-12-6,37,34,30,35,33,30,100,97,92,30.20,30.09,4,0,12,0.00
2013-12-7,28,25,22,24,21,18,90,85,80,30.57,30.43,5,0,14,0.00
2013-12-8,25,21,16,25,19,15,100,93,84,30.57,30.23,5,0,12,0.00
2013-12-9,36,33,31,36,32,29,100,94,87,30.10,30.01,6,1,16,0.00
2013-12-10,30,27,23,27,21,14,93,81,64,30.16,29.99,11,2,25,0.00
2013-12-11,28,25,20,23,16,14,94,72,59,30.34,30.20,10,1,20,0.00
2013-12-12,21,18,14,10,8,6,78,64,58,30.45,30.19,9,1,23,0.00
2013-12-13,32,28,23,20,19,15,89,70,60,30.27,30.19,6,0,17,0.00
2013-12-14,32,30,27,32,30,27,100,100,100,30.19,29.76,0,0,11,0.00
2013-12-15,29,27,25,28,24,19,94,87,76,29.89,29.81,17,3,31,0.00
2013-12-16,23,22,18,21,19,13,92,86,81,30.14,30.04,5,0,10,0.00
2013-12-17,33,31,26,33,29,26,100,94,86,29.98,29.92,5,0,10,0.00
2013-12-18,28,28,27,24,23,23,85,83,80,30.17,30.11,6,1,17,0.00
2013-12-19,48,33,16,35,27,16,100,83,57,30.10,30.05,7,0,24,0.00
2013-12-20,41,38,36,38,37,36,100,96,89,29.99,29.94,0,0,0,0.00
2013-12-21,43,41,39,43,41,39,100,100,100,29.94,29.85,5,0,9,0.00
2013-12-22,61,58,54,56,52,50,100,79,68,29.94,29.80,7,1,29,0.00
2013-12-23,43,32,-16,42,30,23,99,86,71,30.26,30.10,13,2,23,0.00
2013-12-24,27,19,14,23,13,8,96,75,62,30.48,30.24,14,2,22,0.00
2013-12-25,26,18,11,18,13,9,94,79,61,30.50,30.26,7,0,13,0.00
2013-12-26,34,31,27,28,22,17,92,72,62,30.31,30.16,11,1,23,0.00
2013-12-27,38,32,25,26,25,23,94,74,59,30.33,30.28,5,0,18,0.00
2013-12-28,50,42,32,31,30,29,91,64,45,30.23,30.12,11,1,26,0.00
2013-12-29,40,37,34,40,37,34,100,100,100,29.82,29.63,8,0,14,0.00
2013-12-30,26,24,22,25,20,17,94,84,75,30.17,30.11,11,1,18,0.00
2013-12-31,25,22,20,22,19,17,95,86,82,30.26,30.10,25,6,28,0.00
2014-1-1,38,33,28,29,27,25,94,77,63,30.28,30.10,5,0,8,0.00
2014-1-2,30,26,13,27,24,12,100,95,87,29.91,29.66,9,1,19,0.00